Погода в Заречье

Россия / Тверская область     57°12′06″N   33°00′21″E
темп.,
°C
ветер,
м/с
пор.,
м/с
влажн.,
%
обл.,
%
осадки,
мм/ч
давл.,
гПа
погр.,
м
8 мая, сб
сб800:00+5юв2785100 0.0 1006158
03:00+6ююв51191100 0.3 10051104
06:00+6ююв51195100 0.8 10031219
09:00+6зюз3694100 2.6 1004566
12:00+4зсз3695100 0.2 1006493
15:00+8сз3572100 0.4 10061212
18:00+9зсз3751100 0.1 10071691
21:00+4сз4974100 0.1 1009583
9 мая, вс
вс900:00+1сз4128799 0.0 1009513
03:00+2сз51290100 0.0 1011700
06:00+2зсз4108850 0.0 1014563
09:00+5сз58612 0.0 1015756
12:00+10сз584149 0.0 10172115
15:00+11сз58325 0.0 10182266
18:00+10ссз47384 0.0 10201992
21:00+4сз116176 0.0 102310
10 мая, пн
пн1000:00+3ююз22675 0.0 102424
03:00+2ююз237917 0.0 102657
06:00+3ю397569 0.0 1027207
09:00+9ююз41050100 0.0 1027671
12:00+8ююз41059100 0.0 1027570
15:00+15ююз46445 0.0 10261118
18:00+16ююз355266 0.0 10261102
21:00+9ю258036 0.0 102880
11 мая, вт
вт1100:00+7ю25895 0.0 102986
03:00+6ю249434 0.0 102967
06:00+7ю268961 0.0 1030121
09:00+14ю365791 0.0 1030544
12:00+18ююв464425 0.0 10291152
15:00+20ююв35405 0.0 10281389
18:00+18юв354849 0.0 10271188
21:00+11юв277648 0.0 1028115
12 мая, ср
ср1200:00+8юв268339 0.0 1028115
03:00+7юв238525 0.0 102852
06:00+8вюв25815 0.0 1028117
09:00+15вюв35531 0.0 1026500
12:00+20в46410 0.0 10251061
15:00+21в58410 0.0 10231432
18:00+19вюв6116746 0.5 10221386
21:00+14юв310896 0.8 1023432